DW2363 Weather Reports


Display with metric or nautical units.
time (UTC)temp
F
wind
direction
speed
MPH
gust
MPH
rain 1hr
in
rain 24hr
in
rain mn
in
humidity
%
barometer
mb
20200226170137 58 0 17.0 23.0 0.00 0.00 0.00 22 1026.4
20200226165637 58 0 17.0 22.0 0.00 0.00 0.00 22 1026.3
20200226165137 57 0 18.0 23.0 0.00 0.00 0.00 22 1026.4
20200226164636 57 0 19.0 23.0 0.00 0.00 0.00 22 1026.4
20200226164136 57 0 18.0 25.0 0.00 0.00 0.00 21 1026.4
20200226163637 58 0 18.0 25.0 0.00 0.00 0.00 21 1026.4
20200226163137 57 0 20.0 25.0 0.00 0.00 0.00 21 1026.4
20200226162637 57 0 20.0 25.0 0.00 0.00 0.00 21 1026.4
20200226162136 57 0 19.0 25.0 0.00 0.00 0.00 21 1026.4
20200226161637 57 0 19.0 25.0 0.00 0.00 0.00 21 1026.6
20200226161136 57 0 18.0 25.0 0.00 0.00 0.00 20 1026.6
20200226160636 57 0 16.0 21.0 0.00 0.00 0.00 21 1026.6
20200226160136 58 0 14.0 20.0 0.00 0.00 0.00 21 1026.6
20200226155637 58 0 13.0 19.0 0.00 0.00 0.00 20 1026.7
20200226155136 58 0 12.0 17.0 0.00 0.00 0.00 20 1026.7
20200226154636 58 0 11.0 15.0 0.00 0.00 0.00 20 1026.7
20200226154136 58 0 11.0 15.0 0.00 0.00 0.00 20 1026.6
20200226153634 58 0 12.0 15.0 0.00 0.00 0.00 19 1026.5
20200226153134 58 0 11.0 15.0 0.00 0.00 0.00 20 1026.4
20200226152634 58 0 11.0 14.0 0.00 0.00 0.00 20 1026.4
20200226152135 57 0 12.0 17.0 0.00 0.00 0.00 20 1026.4
20200226151634 57 0 13.0 17.0 0.00 0.00 0.00 19 1026.3
20200226151134 57 0 13.0 17.0 0.00 0.00 0.00 19 1026.3
20200226150634 57 0 14.0 18.0 0.00 0.00 0.00 19 1026.2
20200226150134 58 0 14.0 18.0 0.00 0.00 0.00 19 1026.0
20200226145633 58 0 13.0 17.0 0.00 0.00 0.00 18 1026.0
20200226145130 58 0 11.0 15.0 0.00 0.00 0.00 18 1026.0
20200226144630 58 0 10.0 13.0 0.00 0.00 0.00 18 1025.8
20200226144131 59 0 10.0 12.0 0.00 0.00 0.00 18 1025.8
20200226143630 58 0 11.0 13.0 0.00 0.00 0.00 18 1025.8
20200226143130 58 0 10.0 13.0 0.00 0.00 0.00 18 1025.9
20200226142628 58 0 10.0 13.0 0.00 0.00 0.00 18 1025.9
20200226142128 58 0 11.0 14.0 0.00 0.00 0.00 18 1025.8
20200226141629 58 0 12.0 17.0 0.00 0.00 0.00 18 1025.8
20200226141128 58 0 13.0 17.0 0.00 0.00 0.00 18 1025.7
20200226140628 58 0 12.0 16.0 0.00 0.00 0.00 18 1025.7
20200226140126 58 0 11.0 15.0 0.00 0.00 0.00 18 1025.8
20200226135627 58 0 11.0 15.0 0.00 0.00 0.00 18 1025.8
20200226135126 58 0 12.0 15.0 0.00 0.00 0.00 18 1025.8
20200226134626 59 0 11.0 15.0 0.00 0.00 0.00 18 1025.7
20200226134126 59 0 10.0 13.0 0.00 0.00 0.00 18 1025.7
20200226133626 59 0 9.0 12.0 0.00 0.00 0.00 17 1025.7
20200226133126 59 0 9.0 11.0 0.00 0.00 0.00 17 1025.8
20200226132626 60 0 10.0 12.0 0.00 0.00 0.00 17 1025.7
20200226132127 59 0 10.0 12.0 0.00 0.00 0.00 17 1025.7
20200226131627 60 0 10.0 13.0 0.00 0.00 0.00 17 1025.6
20200226131125 60 0 9.0 13.0 0.00 0.00 0.00 17 1025.7
20200226130625 60 0 10.0 13.0 0.00 0.00 0.00 18 1025.7
20200226130123 60 0 10.0 13.0 0.00 0.00 0.00 18 1025.7
20200226125624 60 0 10.0 12.0 0.00 0.00 0.00 18 1025.7
20200226125123 60 0 11.0 13.0 0.00 0.00 0.00 18 1025.7
20200226124624 60 0 12.0 13.0 0.00 0.00 0.00 18 1025.7
20200226124124 60 0 11.0 14.0 0.00 0.00 0.00 18 1025.7
20200226123624 60 0 10.0 14.0 0.00 0.00 0.00 18 1025.6
20200226123124 60 0 9.0 12.0 0.00 0.00 0.00 18 1025.6
20200226122624 61 0 8.0 12.0 0.00 0.00 0.00 18 1025.6
20200226122124 61 0 6.0 11.0 0.00 0.00 0.00 19 1025.5
20200226121624 61 0 5.0 9.0 0.00 0.00 0.00 19 1025.5
20200226121123 61 0 5.0 9.0 0.00 0.00 0.00 19 1025.4
20200226120623 61 0 5.0 8.0 0.00 0.00 0.00 19 1025.4
20200226120124 61 0 6.0 9.0 0.00 0.00 0.00 19 1025.4
20200226115623 61 5 7.0 10.0 0.00 0.00 0.00 20 1025.4
20200226115124 61 9 8.0 10.0 0.00 0.00 0.00 20 1025.3
20200226114625 61 0 8.0 10.0 0.00 0.00 0.00 21 1025.3
20200226114124 61 0 7.0 10.0 0.00 0.00 0.00 21 1025.2
20200226113623 61 0 8.0 11.0 0.00 0.00 0.00 22 1025.3
20200226113121 61 0 9.0 11.0 0.00 0.00 0.00 22 1025.2
20200226112621 61 0 9.0 11.0 0.00 0.00 0.00 22 1025.2
20200226112121 61 0 9.0 11.0 0.00 0.00 0.00 23 1025.3
20200226111622 61 0 9.0 11.0 0.00 0.00 0.00 23 1025.2
20200226111121 62 0 9.0 11.0 0.00 0.00 0.00 22 1025.2
20200226110622 62 0 9.0 12.0 0.00 0.00 0.00 19 1025.2
20200226110122 62 0 10.0 12.0 0.00 0.00 0.00 20 1025.1
20200226105622 62 0 10.0 12.0 0.00 0.00 0.00 20 1025.1
20200226105123 62 0 9.0 12.0 0.00 0.00 0.00 19 1025.2
20200226104621 62 0 9.0 12.0 0.00 0.00 0.00 20 1025.2
20200226104121 62 0 9.0 12.0 0.00 0.00 0.00 20 1025.2
20200226103622 62 0 9.0 12.0 0.00 0.00 0.00 20 1025.2
20200226103122 62 0 10.0 14.0 0.00 0.00 0.00 20 1025.3
20200226102622 62 0 12.0 15.0 0.00 0.00 0.00 19 1025.3
20200226102121 62 0 13.0 16.0 0.00 0.00 0.00 19 1025.3
20200226101621 62 0 14.0 18.0 0.00 0.00 0.00 18 1025.3
20200226101122 62 0 13.0 18.0 0.00 0.00 0.00 18 1025.3
20200226100625 62 0 12.0 17.0 0.00 0.00 0.00 19 1025.2
20200226100122 62 0 12.0 17.0 0.00 0.00 0.00 19 1025.3
20200226095622 62 0 10.0 15.0 0.00 0.00 0.00 19 1025.3
20200226095121 62 0 8.0 12.0 0.00 0.00 0.00 20 1025.3
20200226094621 62 0 5.0 10.0 0.00 0.00 0.00 20 1025.4
20200226094121 62 0 3.0 8.0 0.00 0.00 0.00 21 1025.4
20200226093621 62 0 1.0 8.0 0.00 0.00 0.00 23 1025.4
20200226093119 62 0 0.0 0.0 0.00 0.00 0.00 24 1025.4
20200226092619 63 0 0.0 0.0 0.00 0.00 0.00 23 1025.4
20200226092119 63 29 0.0 0.0 0.00 0.00 0.00 23 1025.4
20200226091617 63 0 2.0 5.0 0.00 0.00 0.00 23 1025.3
20200226091117 63 0 5.0 6.0 0.00 0.00 0.00 23 1025.4
20200226090615 63 0 6.0 8.0 0.00 0.00 0.00 23 1025.4
20200226090115 63 0 6.0 9.0 0.00 0.00 0.00 22 1025.4
20200226085616 63 0 8.0 10.0 0.00 0.00 0.00 22 1025.5
20200226085115 64 5 9.0 12.0 0.00 0.00 0.00 23 1025.5
20200226084615 64 0 10.0 13.0 0.00 0.00 0.00 23 1025.4
20200226084115 64 11 11.0 14.0 0.00 0.00 0.00 24 1025.4
20200226083615 64 0 12.0 15.0 0.00 0.00 0.00 20 1025.4
20200226083114 64 0 14.0 18.0 0.00 0.00 0.00 20 1025.3
20200226082615 64 0 14.0 18.0 0.00 0.00 0.00 17 1025.2
20200226082115 64 0 14.0 21.0 0.00 0.00 0.00 17 1025.3
20200226081615 64 0 14.0 21.0 0.00 0.00 0.00 16 1025.4
20200226081116 64 5 12.0 17.0 0.00 0.00 0.00 16 1025.3
20200226080615 64 0 13.0 16.0 0.00 0.00 0.00 16 1025.4
20200226080113 64 0 14.0 16.0 0.00 0.00 0.00 16 1025.3
20200226075612 65 9 14.0 18.0 0.00 0.00 0.00 16 1025.2
20200226075112 65 0 14.0 18.0 0.00 0.00 0.00 16 1025.2
20200226074613 65 0 13.0 16.0 0.00 0.00 0.00 16 1025.3
20200226074113 64 0 12.0 16.0 0.00 0.00 0.00 16 1025.1
20200226073613 65 355 13.0 16.0 0.00 0.00 0.00 16 1025.2
20200226073112 65 9 12.0 16.0 0.00 0.00 0.00 16 1025.2
20200226072613 65 0 12.0 16.0 0.00 0.00 0.00 16 1025.3
20200226072112 65 0 13.0 16.0 0.00 0.00 0.00 16 1025.3
20200226071612 65 0 14.0 18.0 0.00 0.00 0.00 16 1025.4
20200226071113 65 0 13.0 18.0 0.00 0.00 0.00 16 1025.3
20200226070613 65 0 12.0 17.0 0.00 0.00 0.00 16 1025.3
20200226070112 65 0 13.0 21.0 0.00 0.00 0.00 16 1025.3
20200226065613 65 0 15.0 21.0 0.00 0.00 0.00 16 1025.3
20200226065112 65 0 15.0 18.0 0.00 0.00 0.00 16 1025.2
20200226064613 65 0 15.0 20.0 0.00 0.00 0.00 16 1025.2
20200226064113 65 0 14.0 20.0 0.00 0.00 0.00 16 1025.2
20200226063613 65 0 15.0 20.0 0.00 0.00 0.00 16 1025.2
20200226063113 66 0 16.0 21.0 0.00 0.00 0.00 16 1025.2
20200226062613 66 0 16.0 21.0 0.00 0.00 0.00 16 1025.2
20200226062110 66 0 16.0 22.0 0.00 0.00 0.00 16 1025.1
20200226061611 66 0 17.0 23.0 0.00 0.00 0.00 16 1025.2
20200226061110 66 0 17.0 23.0 0.00 0.00 0.00 16 1025.2
20200226060610 66 0 17.0 22.0 0.00 0.00 0.00 16 1025.2
20200226060110 66 0 16.0 23.0 0.00 0.00 0.00 16 1025.1
20200226055610 66 15 17.0 24.0 0.00 0.00 0.00 16 1025.1
20200226055111 66 0 18.0 24.0 0.00 0.00 0.00 16 1025.0
20200226054611 66 9 18.0 21.0 0.00 0.00 0.00 15 1024.9
20200226054110 66 0 17.0 21.0 0.00 0.00 0.00 15 1024.9
20200226053610 66 0 17.0 20.0 0.00 0.00 0.00 15 1024.8
20200226053111 66 0 18.0 22.0 0.00 0.00 0.00 15 1024.8
20200226052611 66 5 17.0 22.0 0.00 0.00 0.00 15 1024.6
20200226052110 66 0 18.0 23.0 0.00 0.00 0.00 15 1024.8
20200226051610 66 0 18.0 25.0 0.00 0.00 0.00 15 1024.8
20200226051110 66 12 17.0 25.0 0.00 0.00 0.00 15 1024.6
20200226050611 66 0 16.0 24.0 0.00 0.00 0.00 15 1024.5
20200226050111 66 0 16.0 20.0 0.00 0.00 0.00 15 1024.5
20200226045611 66 0 17.0 21.0 0.00 0.00 0.00 15 1024.4
20200226045110 66 0 17.0 21.0 0.00 0.00 0.00 15 1024.2
20200226044611 66 0 16.0 20.0 0.00 0.00 0.00 15 1024.1
20200226044111 66 0 16.0 21.0 0.00 0.00 0.00 15 1024.0
20200226043610 66 0 16.0 21.0 0.00 0.00 0.00 15 1024.0
20200226043110 66 0 16.0 21.0 0.00 0.00 0.00 15 1023.9
20200226042610 66 0 17.0 21.0 0.00 0.00 0.00 15 1023.9
20200226042109 66 0 17.0 22.0 0.00 0.00 0.00 15 1023.8
20200226041606 66 0 17.0 22.0 0.00 0.00 0.00 15 1023.8
20200226041106 66 0 17.0 22.0 0.00 0.00 0.00 15 1023.7
20200226040606 66 0 18.0 21.0 0.00 0.00 0.00 15 1023.6
20200226040106 66 0 17.0 21.0 0.00 0.00 0.00 15 1023.6
20200226035605 66 0 18.0 22.0 0.00 0.00 0.00 15 1023.6
20200226035105 66 0 18.0 22.0 0.00 0.00 0.00 15 1023.6
20200226034605 66 0 17.0 22.0 0.00 0.00 0.00 15 1023.5
20200226034102 66 0 17.0 21.0 0.00 0.00 0.00 15 1023.4
20200226033602 66 0 17.0 22.0 0.00 0.00 0.00 15 1023.5
20200226033102 66 0 18.0 22.0 0.00 0.00 0.00 15 1023.4
20200226032602 66 348 18.0 22.0 0.00 0.00 0.00 15 1023.2
20200226032103 66 0 18.0 23.0 0.00 0.00 0.00 15 1023.1
20200226031603 66 0 18.0 23.0 0.00 0.00 0.00 15 1023.1
20200226031100 67 0 19.0 23.0 0.00 0.00 0.00 15 1023.1
20200226030600 67 0 19.0 25.0 0.00 0.00 0.00 15 1022.9
20200226030100 67 0 20.0 28.0 0.00 0.00 0.00 15 1022.9
20200226025556 67 0 21.0 29.0 0.00 0.00 0.00 15 1022.9
20200226025056 67 0 22.0 29.0 0.00 0.00 0.00 15 1022.8
20200226024557 67 0 22.0 27.0 0.00 0.00 0.00 15 1022.6
20200226024056 67 0 22.0 28.0 0.00 0.00 0.00 15 1022.6
20200226023556 67 13 21.0 28.0 0.00 0.00 0.00 15 1022.4
20200226023056 67 0 22.0 27.0 0.00 0.00 0.00 15 1022.6
20200226022556 67 0 22.0 27.0 0.00 0.00 0.00 16 1022.5
20200226022055 67 9 21.0 27.0 0.00 0.00 0.00 16 1022.5
20200226021554 68 5 21.0 26.0 0.00 0.00 0.00 16 1022.4
20200226021054 68 5 21.0 26.0 0.00 0.00 0.00 16 1022.2
20200226020553 68 0 20.0 26.0 0.00 0.00 0.00 16 1022.2
20200226020054 68 9 20.0 25.0 0.00 0.00 0.00 17 1022.1
20200226015554 68 0 21.0 27.0 0.00 0.00 0.00 17 1022.2
20200226015054 68 0 21.0 27.0 0.00 0.00 0.00 16 1022.1
20200226014554 68 0 19.0 24.0 0.00 0.00 0.00 17 1022.0
20200226014054 68 0 20.0 26.0 0.00 0.00 0.00 17 1022.1
20200226013554 69 0 21.0 27.0 0.00 0.00 0.00 17 1022.0
20200226013048 69 0 20.0 27.0 0.00 0.00 0.00 17 1022.0
20200226012548 69 0 19.0 26.0 0.00 0.00 0.00 17 1021.9
20200226012048 69 0 19.0 25.0 0.00 0.00 0.00 17 1022.0
20200226011548 69 0 19.0 25.0 0.00 0.00 0.00 18 1021.7
20200226011049 69 5 18.0 25.0 0.00 0.00 0.00 18 1021.9
20200226010548 69 0 17.0 25.0 0.00 0.00 0.00 18 1022.0
20200226010048 69 0 17.0 25.0 0.00 0.00 0.00 18 1021.9
20200226005548 69 12 17.0 23.0 0.00 0.00 0.00 18 1022.0
20200226005046 69 0 15.0 23.0 0.00 0.00 0.00 18 1022.0
20200226004545 69 0 15.0 23.0 0.00 0.00 0.00 18 1022.0
20200226004046 69 0 16.0 26.0 0.00 0.00 0.00 18 1022.0
20200226003545 69 0 16.0 26.0 0.00 0.00 0.00 18 1021.9
20200226003046 69 0 14.0 23.0 0.00 0.00 0.00 18 1021.9
20200226002544 69 0 13.0 22.0 0.00 0.00 0.00 19 1021.7
20200226002044 70 0 14.0 22.0 0.00 0.00 0.00 18 1021.9
20200226001543 70 0 13.0 21.0 0.00 0.00 0.00 18 1021.9
20200226001043 70 0 12.0 20.0 0.00 0.00 0.00 18 1021.9
20200226000543 70 0 11.0 16.0 0.00 0.00 0.00 18 1022.0
20200226000042 70 0 10.0 18.0 0.00 0.00 0.00 18 1022.0
20200225235541 70 0 10.0 18.0 0.00 0.00 0.00 18 1022.0
20200225235041 70 0 10.0 16.0 0.00 0.00 0.00 19 1022.0
20200225234542 70 0 10.0 19.0 0.00 0.00 0.00 19 1022.1
20200225234041 70 0 10.0 19.0 0.00 0.00 0.00 18 1022.0
20200225233542 70 0 9.0 15.0 0.00 0.00 0.00 19 1022.1
20200225233041 70 0 10.0 18.0 0.00 0.00 0.00 19 1022.1
20200225232542 70 0 11.0 18.0 0.00 0.00 0.00 19 1022.0
20200225232042 70 0 10.0 18.0 0.00 0.00 0.00 18 1022.0
20200225231541 71 0 8.0 18.0 0.00 0.00 0.00 19 1022.0
20200225231041 71 0 8.0 14.0 0.00 0.00 0.00 19 1022.1
20200225230542 70 16 10.0 19.0 0.00 0.00 0.00 19 1022.1
20200225230042 70 0 12.0 20.0 0.00 0.00 0.00 18 1022.1
20200225225541 70 0 12.0 20.0 0.00 0.00 0.00 19 1022.2
20200225225041 70 0 14.0 22.0 0.00 0.00 0.00 19 1022.1
20200225224542 70 0 14.0 22.0 0.00 0.00 0.00 18 1022.0
20200225224042 71 0 13.0 22.0 0.00 0.00 0.00 19 1022.0
20200225223541 70 0 15.0 21.0 0.00 0.00 0.00 19 1022.0
20200225223042 70 0 16.0 26.0 0.00 0.00 0.00 19 1021.9
20200225222543 70 0 17.0 26.0 0.00 0.00 0.00 18 1021.9
20200225222042 70 0 17.0 24.0 0.00 0.00 0.00 19 1021.9
20200225221542 70 0 19.0 28.0 0.00 0.00 0.00 19 1022.0
20200225221041 69 0 21.0 28.0 0.00 0.00 0.00 19 1022.0
20200225220542 69 5 21.0 28.0 0.00 0.00 0.00 18 1021.9
20200225220042 70 0 19.0 28.0 0.00 0.00 0.00 18 1021.9
20200225215541 70 0 17.0 27.0 0.00 0.00 0.00 18 1021.9
20200225215042 70 0 19.0 26.0 0.00 0.00 0.00 19 1022.0
20200225214542 69 0 20.0 27.0 0.00 0.00 0.00 19 1022.1
20200225214040 69 0 20.0 27.0 0.00 0.00 0.00 19 1022.1
20200225213539 69 0 20.0 27.0 0.00 0.00 0.00 19 1022.2
20200225213039 69 0 21.0 31.0 0.00 0.00 0.00 19 1022.1
20200225212539 69 0 22.0 31.0 0.00 0.00 0.00 19 1022.1
20200225212039 69 0 22.0 30.0 0.00 0.00 0.00 18 1022.2
20200225211539 69 0 23.0 33.0 0.00 0.00 0.00 19 1022.2
20200225211040 69 9 22.0 33.0 0.00 0.00 0.00 19 1022.4
20200225210540 69 0 22.0 31.0 0.00 0.00 0.00 20 1022.4
20200225210039 69 0 24.0 31.0 0.00 0.00 0.00 19 1022.4
20200225205539 69 0 23.0 31.0 0.00 0.00 0.00 19 1022.4
20200225205037 69 0 22.0 28.0 0.00 0.00 0.00 19 1022.6
20200225204538 69 0 23.0 33.0 0.00 0.00 0.00 19 1022.6
20200225204037 69 0 24.0 33.0 0.00 0.00 0.00 19 1022.6
20200225203537 69 0 24.0 32.0 0.00 0.00 0.00 19 1022.6
20200225203037 69 0 25.0 32.0 0.00 0.00 0.00 20 1022.7
20200225202537 68 0 25.0 32.0 0.00 0.00 0.00 19 1022.7
20200225202037 69 0 24.0 33.0 0.00 0.00 0.00 19 1022.8
20200225201540 69 0 24.0 33.0 0.00 0.00 0.00 19 1022.8
20200225201038 69 0 23.0 31.0 0.00 0.00 0.00 19 1022.9
20200225200538 69 5 23.0 30.0 0.00 0.00 0.00 19 1022.9
20200225200037 69 0 22.0 29.0 0.00 0.00 0.00 19 1023.0
20200225195535 69 0 22.0 28.0 0.00 0.00 0.00 20 1023.2
20200225195035 68 0 24.0 30.0 0.00 0.00 0.00 19 1023.2
20200225194535 68 0 24.0 30.0 0.00 0.00 0.00 19 1023.2
20200225194035 68 0 22.0 30.0 0.00 0.00 0.00 20 1023.2
20200225193535 68 0 20.0 28.0 0.00 0.00 0.00 20 1023.2
20200225193035 68 0 20.0 28.0 0.00 0.00 0.00 20 1023.4
20200225192535 68 0 19.0 26.0 0.00 0.00 0.00 20 1023.4
20200225192035 68 0 20.0 27.0 0.00 0.00 0.00 21 1023.5
20200225191533 67 0 21.0 27.0 0.00 0.00 0.00 20 1023.4
20200225191033 67 0 21.0 27.0 0.00 0.00 0.00 20 1023.4
20200225190533 67 0 19.0 28.0 0.00 0.00 0.00 20 1023.4
20200225190033 67 0 20.0 28.0 0.00 0.00 0.00 21 1023.5
20200225185533 67 0 20.0 26.0 0.00 0.00 0.00 20 1023.6
20200225185033 67 0 21.0 29.0 0.00 0.00 0.00 20 1023.6
20200225184533 67 0 21.0 29.0 0.00 0.00 0.00 21 1023.6
20200225184033 67 9 22.0 29.0 0.00 0.00 0.00 21 1023.6
20200225183533 67 0 23.0 29.0 0.00 0.00 0.00 21 1023.5
20200225183034 66 0 25.0 31.0 0.00 0.00 0.00 21 1023.4
20200225182531 66 0 25.0 31.0 0.00 0.00 0.00 21 1023.1
20200225182031 66 0 26.0 34.0 0.00 0.00 0.00 21 1023.0
20200225181531 66 0 26.0 34.0 0.00 0.00 0.00 21 1023.0
20200225181030 66 0 26.0 34.0 0.00 0.00 0.00 21 1023.0
20200225180531 65 0 27.0 34.0 0.00 0.00 0.00 21 1023.0
20200225180030 65 0 28.0 34.0 0.00 0.00 0.00 21 1022.9
20200225175531 65 0 27.0 34.0 0.00 0.00 0.00 21 1022.8
20200225175031 65 0 26.0 34.0 0.00 0.00 0.00 21 1022.9
20200225174531 65 0 26.0 36.0 0.00 0.00 0.00 22 1022.8
20200225174030 65 0 26.0 36.0 0.00 0.00 0.00 22 1022.7
20200225173530 64 0 25.0 32.0 0.00 0.00 0.00 23 1022.8
20200225173030 64 0 24.0 32.0 0.00 0.00 0.00 23 1022.7
20200225172530 64 0 24.0 29.0 0.00 0.00 0.00 24 1022.8
20200225172029 63 0 24.0 30.0 0.00 0.00 0.00 24 1022.9
20200225171530 63 0 25.0 30.0 0.00 0.00 0.00 24 1022.8
20200225171030 63 0 26.0 31.0 0.00 0.00 0.00 25 1022.7
20200225170530 62 0 26.0 32.0 0.00 0.00 0.00 25 1022.7